This demonstration page uses our WeatherBlox Daily Observations layout. Learn more.

Hourly Observations for March 16, 2020

Temp ( °F °C ) Dew Point ( °F °C ) Humidity (%) Winds ( mph kmh ) Pressure ( in mb ) Visibility ( mi km ) Precip ( " mm )
12:15 am 00:15 Cloudy with Mist and Fog 33 0.6 32 0.1 97 97 SE 8 13 30.32 1027 5 8.0467 0 0
12:35 am 00:35 Cloudy with Mist and Fog 33 0.6 32 0.1 97 97 SE 9 15 30.32 1027 4 6.43736 0 0
12:55 am 00:55 Cloudy with Mist and Fog 33 0.6 32 0.1 97 97 SE 7 11 30.31 1026 2.5 4.02335 0 0
1:15 am 01:15 Cloudy with Mist and Fog 33 0.6 32 0.1 97 97 SE 9 15 30.3 1026 2.5 4.02335 0 0
1:35 am 01:35 Cloudy with Mist and Fog 33 0.6 32 0.2 97 97 SSE 6 9 30.29 1026 2.5 4.02335 0 0
1:55 am 01:55 Cloudy with Mist and Fog 33 0.6 32 0.2 97 97 SSE 8 13 30.29 1026 2.5 4.02335 0 0
2:15 am 02:15 Cloudy with Mist and Fog 33 0.6 32 0.2 97 97 SSE 7 11 30.29 1026 2 3.21868 0 0
2:35 am 02:35 Cloudy with Mist and Fog 33 0.6 32 0.2 97 97 SSE 8 13 30.29 1026 2.5 4.02335 0 0
2:55 am 02:55 Cloudy with Mist and Fog 33 0.6 32 0.2 97 97 SE 7 11 30.28 1025 2.5 4.02335 0 0
3:15 am 03:15 Cloudy with Mist and Fog 33 0.6 33 0.3 98 98 SSE 6 9 30.28 1025 2 3.21868 0 0
3:35 am 03:35 Cloudy with Mist and Fog 33 0.7 33 0.3 97 97 SE 7 11 30.26 1025 1.25 2.011675 0 0
3:55 am 03:55 Cloudy with Mist and Fog 33 0.7 33 0.3 97 97 SE 8 13 30.26 1025 1 1.60934 0 0
4:15 am 04:15 Cloudy with Mist and Fog 33 0.7 33 0.3 97 97 SSE 7 11 30.25 1024 0.75 1.207005 0 0
4:35 am 04:35 Cloudy with Fog 33 0.7 33 0.3 97 97 SE 8 13 30.25 1024 0.5 0.80467 0 0
4:55 am 04:55 Cloudy with Fog 33 0.7 33 0.5 99 99 SE 9 15 30.24 1024 0.5 0.80467 0 0
5:15 am 05:15 Cloudy with Fog 33 0.7 33 0.5 99 99 SE 8 13 30.25 1024 0.5 0.80467 0 0
5:35 am 05:35 Cloudy with Fog 33 0.7 33 0.5 99 99 SE 8 13 30.25 1024 0.5 0.80467 0 0
5:55 am 05:55 Cloudy with Fog 33 0.7 33 0.5 99 99 SE 8 13 30.25 1024 0.5 0.80467 0 0
6:15 am 06:15 Cloudy with Fog 33 0.7 33 0.5 99 99 SSE 6 9 30.25 1024 0.5 0.80467 0 0
6:35 am 06:35 Cloudy with Fog 33 0.7 33 0.5 99 99 SSE 7 11 30.25 1024 0.5 0.80467 0 0
6:55 am 06:55 Cloudy with Fog 33 0.7 33 0.5 99 99 SSE 5 7 30.25 1024 0.5 0.80467 0 0
7:15 am 07:15 Cloudy with Mist and Fog 33 0.8 33 0.5 98 98 SSE 5 7 30.26 1025 0.75 1.207005 0 0
7:35 am 07:35 Cloudy with Mist and Fog 34 1 33 0.6 97 97 SSE 3 6 30.26 1025 0.75 1.207005 0 0
7:55 am 07:55 Cloudy with Mist and Fog 34 1 33 0.6 97 97 SSE 3 6 30.26 1025 0.75 1.207005 0 0
8:15 am 08:15 Cloudy with Fog 34 1 33 0.6 97 97 Calm 30.26 1025 0.5 0.80467 0 0
8:35 am 08:35 Cloudy with Fog 34 1 33 0.7 98 98 Calm 30.27 1025 0.5 0.80467 0 0
8:55 am 08:55 Cloudy with Fog 34 1.1 33 0.8 98 98 SE 3 6 30.27 1025 0.5 0.80467 0 0
9:15 am 09:15 Cloudy with Fog 34 1.2 34 0.9 98 98 Calm 30.26 1025 0.5 0.80467 0 0
9:35 am 09:35 Cloudy with Mist and Fog 34 1.3 34 1 98 98 Calm 30.26 1025 0.75 1.207005 0 0
9:55 am 09:55 Cloudy with Mist and Fog 35 1.4 34 1.1 98 98 Calm 30.27 1025 1.25 2.011675 0 0
10:15 am 10:15 Cloudy with Mist and Fog 35 1.5 34 1.2 98 98 Calm 30.28 1025 1.25 2.011675 0 0
10:35 am 10:35 Cloudy with Mist and Fog 35 1.7 35 1.5 99 99 Calm 30.28 1025 1.5 2.41401 0 0
10:55 am 10:55 Cloudy with Mist and Fog 35 1.9 35 1.6 98 98 Calm 30.28 1025 1.5 2.41401 0 0
11:15 am 11:15 Cloudy with Mist and Fog 36 2.1 35 1.8 98 98 Calm 30.28 1025 1.5 2.41401 0 0
11:35 am 11:35 Cloudy with Mist and Fog 36 2.3 36 2 98 98 Calm 30.27 1025 1.75 2.816345 0 0
11:55 am 11:55 Cloudy with Mist and Fog 37 2.5 36 2.2 98 98 Calm 30.27 1025 2 3.21868 0 0
12:15 pm 12:15 Cloudy with Mist and Fog 37 2.8 37 2.5 98 98 SSE 3 6 30.27 1025 1.75 2.816345 0 0
12:35 pm 12:35 Cloudy with Mist and Fog 37 2.8 37 2.5 98 98 Calm 30.27 1025 5 8.0467 0 0
12:55 pm 12:55 Cloudy with Mist and Fog 37 3 37 2.5 97 97 Calm 30.26 1025 4 6.43736 0 0
1:15 pm 13:15 Cloudy with Mist and Fog 38 3.4 37 3 97 97 Calm 30.25 1024 4 6.43736 0 0
1:35 pm 13:35 Cloudy 38 3.5 37 2.5 93 93 Calm 30.25 1024 10 16.0934 0 0
1:55 pm 13:55 Cloudy 39 3.9 37 2.5 91 91 NW 3 6 30.25 1024 10 16.0934 0 0
2:15 pm 14:15 Cloudy 39 3.9 37 2.6 91 91 NNW 3 6 30.25 1024 7 11.26538 0 0
2:35 pm 14:35 Cloudy 39 4.1 37 2.9 92 92 N 3 6 30.24 1024 7 11.26538 0 0
2:55 pm 14:55 Cloudy 40 4.4 38 3.1 91 91 N 5 7 30.23 1024 10 16.0934 0 0
3:15 pm 15:15 Cloudy 40 4.6 37 2.9 89 89 N 7 11 30.22 1023 10 16.0934 0 0
3:35 pm 15:35 Cloudy 41 4.8 37 2.8 87 87 N 8 13 30.22 1023 10 16.0934 0 0
3:55 pm 15:55 Cloudy 41 5 37 2.7 85 85 NNE 8 13 30.22 1023 10 16.0934 0 0
4:15 pm 16:15 Cloudy 42 5.5 37 3 84 84 N 7 11 30.21 1023 10 16.0934 0 0
4:35 pm 16:35 Cloudy 42 5.7 37 2.9 82 82 NE 9 15 30.21 1023 10 16.0934 0 0
4:55 pm 16:55 Cloudy 42 5.6 37 3 84 84 NE 6 9 30.2 1023 10 16.0934 0 0
5:15 pm 17:15 Cloudy 43 6 37 2.7 80 80 N 7 11 30.21 1023 10 16.0934 0 0
5:35 pm 17:35 Cloudy 42 5.3 37 2.8 84 84 NNE 8 13 30.22 1023 10 16.0934 0 0
5:55 pm 17:55 Cloudy 41 5.2 37 3 86 86 NE 7 11 30.22 1023 10 16.0934 0 0
6:15 pm 18:15 Cloudy 41 5.1 37 2.7 85 85 NE 8 13 30.22 1023 10 16.0934 0 0
6:35 pm 18:35 Cloudy 41 5 37 2.7 85 85 NNE 7 11 30.22 1023 10 16.0934 0 0
6:55 pm 18:55 Cloudy 41 4.8 37 2.5 85 85 NNE 9 15 30.23 1024 10 16.0934 0 0
7:15 pm 19:15 Cloudy 39 4 37 2.5 90 90 NNE 13 20 30.25 1024 10 16.0934 0 0
7:35 pm 19:35 Cloudy 39 3.7 37 2.6 93 93 N 10 17 30.26 1025 7 11.26538 0 0
7:55 pm 19:55 Cloudy with Mist and Fog 38 3.5 37 2.7 95 95 NNE 9 15 30.27 1025 5 8.0467 0 0
8:15 pm 20:15 Cloudy 38 3.3 37 2.5 95 95 NNE 12 19 30.28 1026 10 16.0934 0 0
8:35 pm 20:35 Cloudy 38 3.2 36 2.3 94 94 NNE 12 19 30.3 1026 10 16.0934 0 0
8:55 pm 20:55 Cloudy 38 3.1 35 1.8 91 91 NNE 12 19 30.3 1026 10 16.0934 0 0
9:15 pm 21:15 Cloudy 37 3 35 1.7 91 91 N 8 13 30.31 1026 10 16.0934 0 0
9:35 pm 21:35 Cloudy 37 3 35 1.7 91 91 N 8 13 30.33 1027 10 16.0934 0 0
9:55 pm 21:55 Cloudy 37 3 35 1.6 91 91 NNE 9 15 30.33 1027 10 16.0934 0 0
10:15 pm 22:15 Cloudy 37 2.8 35 1.5 91 91 NNE 12 19 30.34 1027 10 16.0934 0 0
10:35 pm 22:35 Cloudy 37 2.7 35 1.5 92 92 NNE 13 20 30.34 1027 10 16.0934 0 0
10:55 pm 22:55 Cloudy 37 2.5 34 1.2 91 91 NNE 10 17 30.35 1028 10 16.0934 0 0
11:15 pm 23:15 Cloudy 37 2.5 34 1.2 91 91 NNE 10 17 30.35 1028 10 16.0934 0 0
11:35 pm 23:35 Cloudy 36 2.3 34 1 91 91 NNE 10 17 30.35 1028 10 16.0934 0 0
11:55 pm 23:55 Cloudy 36 2.2 34 1 92 92 NNE 8 13 30.35 1028 10 16.0934 0 0

Powered by AerisWeather